| time (UTC) | temp F | wind direction | speed MPH | gust MPH | rain 1hr in | rain 24hr in | rain mn in | humidity % | barometer mb |
| 20260901004043 | 88 | 0 | 0.0 | 0.0 | 0.00 | 0.00 | 0.00 | 51 | 1016.4 |
| 20260901003547 | 88 | 0 | 0.0 | 0.0 | 0.00 | 0.00 | 0.00 | 50 | 1016.4 |
| 20260901003057 | 89 | 0 | 0.0 | 1.0 | 0.00 | 0.00 | 0.00 | 49 | 1016.4 |
| 20260901002546 | 89 | 0 | 0.0 | 2.0 | 0.00 | 0.00 | 0.00 | 48 | 1016.4 |
| 20260901002044 | 90 | 0 | 0.0 | 3.0 | 0.00 | 0.00 | 0.00 | 47 | 1016.3 |
| 20260901001607 | 91 | 0 | 1.0 | 3.0 | 0.00 | 0.00 | 0.00 | 46 | 1016.4 |
| 20260901001043 | 91 | 139 | 0.0 | 3.0 | 0.00 | 0.00 | 0.00 | 45 | 1016.3 |
| 20260901000543 | 92 | 106 | 1.0 | 3.0 | 0.00 | 0.00 | 0.00 | 45 | 1016.3 |
| 20260901000108 | 92 | 0 | 0.0 | 4.0 | 0.00 | 0.00 | 0.00 | 45 | 1016.3 |
| 20260831235543 | 92 | 0 | 1.0 | 4.0 | 0.00 | 0.00 | 0.00 | 45 | 1016.3 |
| 20260831235045 | 93 | 138 | 1.0 | 4.0 | 0.00 | 0.00 | 0.00 | 44 | 1016.3 |
| 20260831234635 | 93 | 134 | 0.0 | 3.0 | 0.00 | 0.00 | 0.00 | 44 | 1016.3 |
| 20260831234044 | 93 | 141 | 0.0 | 2.0 | 0.00 | 0.00 | 0.00 | 45 | 1016.3 |
| 20260831233542 | 93 | 134 | 0.0 | 2.0 | 0.00 | 0.00 | 0.00 | 44 | 1016.3 |
| 20260831233101 | 93 | 0 | 0.0 | 2.0 | 0.00 | 0.00 | 0.00 | 43 | 1016.2 |
| 20260831232543 | 93 | 150 | 0.0 | 2.0 | 0.00 | 0.00 | 0.00 | 44 | 1016.2 |
| 20260831232044 | 93 | 169 | 0.0 | 5.0 | 0.00 | 0.00 | 0.00 | 44 | 1016.3 |
| 20260831231605 | 93 | 126 | 0.0 | 5.0 | 0.00 | 0.00 | 0.00 | 44 | 1016.3 |
| 20260831231045 | 93 | 155 | 1.0 | 4.0 | 0.00 | 0.00 | 0.00 | 42 | 1016.3 |
| 20260831230544 | 94 | 194 | 0.0 | 4.0 | 0.00 | 0.00 | 0.00 | 42 | 1016.4 |
| 20260831230106 | 94 | 133 | 1.0 | 4.0 | 0.00 | 0.00 | 0.00 | 40 | 1016.4 |
| 20260831225543 | 94 | 124 | 0.0 | 3.0 | 0.00 | 0.00 | 0.00 | 41 | 1016.5 |
| 20260831225044 | 94 | 207 | 1.0 | 5.0 | 0.00 | 0.00 | 0.00 | 41 | 1016.4 |
| 20260831224603 | 94 | 140 | 1.0 | 5.0 | 0.00 | 0.00 | 0.00 | 42 | 1016.4 |
| 20260831224044 | 95 | 125 | 1.0 | 4.0 | 0.00 | 0.00 | 0.00 | 40 | 1016.5 |
| 20260831223544 | 95 | 166 | 1.0 | 5.0 | 0.00 | 0.00 | 0.00 | 42 | 1016.5 |
| 20260831223105 | 95 | 132 | 1.0 | 5.0 | 0.00 | 0.00 | 0.00 | 41 | 1016.6 |
| 20260831222544 | 95 | 150 | 2.0 | 5.0 | 0.00 | 0.00 | 0.00 | 39 | 1016.7 |
| 20260831222045 | 96 | 148 | 1.0 | 5.0 | 0.00 | 0.00 | 0.00 | 40 | 1016.7 |
| 20260831221605 | 96 | 0 | 1.0 | 6.0 | 0.00 | 0.00 | 0.00 | 40 | 1016.7 |
| 20260831221043 | 96 | 210 | 0.0 | 6.0 | 0.00 | 0.00 | 0.00 | 39 | 1016.7 |
| 20260831220546 | 96 | 159 | 1.0 | 3.0 | 0.00 | 0.00 | 0.00 | 39 | 1016.8 |
| 20260831220106 | 96 | 157 | 1.0 | 4.0 | 0.00 | 0.00 | 0.00 | 38 | 1016.8 |
| 20260831215543 | 96 | 130 | 1.0 | 12.0 | 0.00 | 0.00 | 0.00 | 39 | 1016.8 |
| 20260831215043 | 96 | 153 | 2.0 | 12.0 | 0.00 | 0.00 | 0.00 | 38 | 1016.8 |
| 20260831214623 | 97 | 138 | 4.0 | 10.0 | 0.00 | 0.00 | 0.00 | 37 | 1016.8 |
| 20260831214044 | 97 | 157 | 2.0 | 6.0 | 0.00 | 0.00 | 0.00 | 37 | 1016.8 |
| 20260831213543 | 97 | 200 | 2.0 | 6.0 | 0.00 | 0.00 | 0.00 | 38 | 1016.8 |
| 20260831213107 | 97 | 140 | 1.0 | 7.0 | 0.00 | 0.00 | 0.00 | 38 | 1016.8 |
| 20260831212545 | 97 | 210 | 2.0 | 7.0 | 0.00 | 0.00 | 0.00 | 37 | 1016.8 |
| 20260831212043 | 97 | 182 | 2.0 | 7.0 | 0.00 | 0.00 | 0.00 | 38 | 1016.8 |
| 20260831211605 | 97 | 129 | 3.0 | 9.0 | 0.00 | 0.00 | 0.00 | 38 | 1016.9 |
| 20260831211044 | 97 | 232 | 4.0 | 9.0 | 0.00 | 0.00 | 0.00 | 39 | 1016.9 |
| 20260831210542 | 97 | 207 | 1.0 | 5.0 | 0.00 | 0.00 | 0.00 | 38 | 1017.0 |
| 20260831210100 | 97 | 233 | 2.0 | 7.0 | 0.00 | 0.00 | 0.00 | 37 | 1017.0 |
| 20260831205544 | 97 | 117 | 3.0 | 7.0 | 0.00 | 0.00 | 0.00 | 37 | 1017.1 |
| 20260831205043 | 97 | 142 | 3.0 | 6.0 | 0.00 | 0.00 | 0.00 | 37 | 1017.2 |
| 20260831204607 | 97 | 129 | 2.0 | 7.0 | 0.00 | 0.00 | 0.00 | 37 | 1017.3 |
| 20260831204044 | 97 | 163 | 3.0 | 7.0 | 0.00 | 0.00 | 0.00 | 37 | 1017.4 |
| 20260831203544 | 97 | 155 | 3.0 | 7.0 | 0.00 | 0.00 | 0.00 | 37 | 1017.4 |
| 20260831203104 | 97 | 216 | 1.0 | 6.0 | 0.00 | 0.00 | 0.00 | 36 | 1017.4 |
| 20260831202543 | 97 | 214 | 1.0 | 7.0 | 0.00 | 0.00 | 0.00 | 37 | 1017.4 |
| 20260831202043 | 97 | 269 | 2.0 | 10.0 | 0.00 | 0.00 | 0.00 | 35 | 1017.5 |
| 20260831201620 | 97 | 163 | 3.0 | 10.0 | 0.00 | 0.00 | 0.00 | 38 | 1017.5 |
| 20260831201044 | 97 | 253 | 2.0 | 10.0 | 0.00 | 0.00 | 0.00 | 36 | 1017.5 |
| 20260831200545 | 97 | 207 | 3.0 | 10.0 | 0.00 | 0.00 | 0.00 | 36 | 1017.7 |
| 20260831195546 | 97 | 196 | 3.0 | 11.0 | 0.00 | 0.00 | 0.00 | 36 | 1017.7 |
| 20260831195043 | 97 | 187 | 2.0 | 6.0 | 0.00 | 0.00 | 0.00 | 37 | 1017.8 |
| 20260831194602 | 97 | 227 | 1.0 | 6.0 | 0.00 | 0.00 | 0.00 | 36 | 1017.9 |
| 20260831194043 | 97 | 171 | 3.0 | 9.0 | 0.00 | 0.00 | 0.00 | 37 | 1017.9 |
| 20260831193544 | 97 | 117 | 3.0 | 9.0 | 0.00 | 0.00 | 0.00 | 37 | 1017.9 |
| 20260831193136 | 97 | 210 | 2.0 | 7.0 | 0.00 | 0.00 | 0.00 | 38 | 1017.8 |
| 20260831192544 | 97 | 215 | 3.0 | 7.0 | 0.00 | 0.00 | 0.00 | 39 | 1017.9 |
| 20260831192047 | 96 | 150 | 1.0 | 6.0 | 0.00 | 0.00 | 0.00 | 40 | 1017.9 |
| 20260831191601 | 96 | 182 | 3.0 | 8.0 | 0.00 | 0.00 | 0.00 | 37 | 1018.0 |
| 20260831191043 | 96 | 163 | 3.0 | 8.0 | 0.00 | 0.00 | 0.00 | 36 | 1018.0 |
| 20260831190543 | 96 | 131 | 2.0 | 8.0 | 0.00 | 0.00 | 0.00 | 41 | 1018.1 |
| 20260831185544 | 96 | 221 | 2.0 | 7.0 | 0.00 | 0.00 | 0.00 | 38 | 1018.2 |
| 20260831185043 | 96 | 261 | 2.0 | 8.0 | 0.00 | 0.00 | 0.00 | 37 | 1018.3 |
| 20260831184608 | 96 | 249 | 3.0 | 8.0 | 0.00 | 0.00 | 0.00 | 40 | 1018.4 |
| 20260831184043 | 96 | 207 | 2.0 | 6.0 | 0.00 | 0.00 | 0.00 | 43 | 1018.4 |
| 20260831183543 | 96 | 213 | 2.0 | 8.0 | 0.00 | 0.00 | 0.00 | 42 | 1018.4 |
| 20260831183107 | 95 | 192 | 1.0 | 8.0 | 0.00 | 0.00 | 0.00 | 44 | 1018.4 |
| 20260831182544 | 95 | 159 | 2.0 | 5.0 | 0.00 | 0.00 | 0.00 | 45 | 1018.5 |
| 20260831182043 | 95 | 213 | 2.0 | 5.0 | 0.00 | 0.00 | 0.00 | 44 | 1018.5 |
| 20260831181614 | 95 | 256 | 1.0 | 8.0 | 0.00 | 0.00 | 0.00 | 46 | 1018.5 |
| 20260831181047 | 94 | 227 | 3.0 | 9.0 | 0.00 | 0.00 | 0.00 | 46 | 1018.6 |
| 20260831180620 | 94 | 234 | 1.0 | 9.0 | 0.00 | 0.00 | 0.00 | 46 | 1018.7 |
| 20260831180543 | 94 | 234 | 1.0 | 9.0 | 0.00 | 0.00 | 0.00 | 46 | 1018.7 |
| 20260831180109 | 94 | 288 | 3.0 | 9.0 | 0.00 | 0.00 | 0.00 | 47 | 1018.7 |
| 20260831175543 | 94 | 231 | 3.0 | 7.0 | 0.00 | 0.00 | 0.00 | 46 | 1018.9 |
| 20260831175043 | 94 | 161 | 3.0 | 7.0 | 0.00 | 0.00 | 0.00 | 47 | 1018.9 |
| 20260831174602 | 93 | 268 | 1.0 | 7.0 | 0.00 | 0.00 | 0.00 | 49 | 1018.9 |
| 20260831174043 | 92 | 270 | 2.0 | 10.0 | 0.00 | 0.00 | 0.00 | 48 | 1019.0 |
| 20260831173545 | 91 | 148 | 3.0 | 10.0 | 0.00 | 0.00 | 0.00 | 49 | 1019.0 |
| 20260831173107 | 91 | 240 | 3.0 | 10.0 | 0.00 | 0.00 | 0.00 | 50 | 1019.1 |
| 20260831172543 | 92 | 244 | 5.0 | 10.0 | 0.00 | 0.00 | 0.00 | 48 | 1019.2 |
| 20260831172043 | 92 | 224 | 3.0 | 9.0 | 0.00 | 0.00 | 0.00 | 48 | 1019.2 |
| 20260831171607 | 93 | 248 | 3.0 | 9.0 | 0.00 | 0.00 | 0.00 | 49 | 1019.2 |
| 20260831171043 | 92 | 225 | 1.0 | 7.0 | 0.00 | 0.00 | 0.00 | 49 | 1019.3 |
| 20260831170543 | 92 | 232 | 3.0 | 7.0 | 0.00 | 0.00 | 0.00 | 51 | 1019.3 |
| 20260831170100 | 92 | 144 | 2.0 | 5.0 | 0.00 | 0.00 | 0.00 | 50 | 1019.4 |
| 20260831165542 | 92 | 230 | 2.0 | 5.0 | 0.00 | 0.00 | 0.00 | 51 | 1019.5 |
| 20260831165043 | 91 | 223 | 2.0 | 6.0 | 0.00 | 0.00 | 0.00 | 53 | 1019.6 |
| 20260831164614 | 91 | 242 | 2.0 | 6.0 | 0.00 | 0.00 | 0.00 | 55 | 1019.5 |
| 20260831164043 | 90 | 158 | 2.0 | 9.0 | 0.00 | 0.00 | 0.00 | 55 | 1019.6 |
| 20260831163543 | 90 | 231 | 2.0 | 11.0 | 0.00 | 0.00 | 0.00 | 54 | 1019.7 |
| 20260831163107 | 89 | 259 | 3.0 | 11.0 | 0.00 | 0.00 | 0.00 | 54 | 1019.7 |
| 20260831162544 | 89 | 238 | 4.0 | 11.0 | 0.00 | 0.00 | 0.00 | 54 | 1019.7 |
| 20260831162047 | 89 | 238 | 3.0 | 7.0 | 0.00 | 0.00 | 0.00 | 54 | 1019.8 |
| 20260831161609 | 90 | 222 | 2.0 | 6.0 | 0.00 | 0.00 | 0.00 | 54 | 1019.6 |
| 20260831161046 | 89 | 193 | 2.0 | 8.0 | 0.00 | 0.00 | 0.00 | 55 | 1019.6 |
| 20260831160543 | 89 | 269 | 2.0 | 8.0 | 0.00 | 0.00 | 0.00 | 57 | 1019.6 |
| 20260831160111 | 88 | 263 | 3.0 | 10.0 | 0.00 | 0.00 | 0.00 | 56 | 1019.6 |
| 20260831155544 | 88 | 223 | 4.0 | 10.0 | 0.00 | 0.00 | 0.00 | 56 | 1019.6 |
| 20260831155044 | 88 | 191 | 1.0 | 5.0 | 0.00 | 0.00 | 0.00 | 57 | 1019.6 |
| 20260831154630 | 88 | 165 | 1.0 | 4.0 | 0.00 | 0.00 | 0.00 | 58 | 1019.6 |
| 20260831154044 | 87 | 196 | 1.0 | 7.0 | 0.00 | 0.00 | 0.00 | 58 | 1019.5 |
| 20260831153544 | 87 | 234 | 2.0 | 7.0 | 0.00 | 0.00 | 0.00 | 58 | 1019.6 |
| 20260831153109 | 86 | 242 | 1.0 | 14.0 | 0.00 | 0.00 | 0.00 | 59 | 1019.5 |
| 20260831152547 | 85 | 225 | 4.0 | 14.0 | 0.00 | 0.00 | 0.00 | 59 | 1019.7 |
| 20260831152043 | 86 | 271 | 3.0 | 11.0 | 0.00 | 0.00 | 0.00 | 59 | 1019.6 |
| 20260831151601 | 86 | 239 | 3.0 | 11.0 | 0.00 | 0.00 | 0.00 | 58 | 1019.7 |
| 20260831151046 | 86 | 232 | 4.0 | 11.0 | 0.00 | 0.00 | 0.00 | 59 | 1019.7 |
| 20260831150545 | 86 | 227 | 2.0 | 6.0 | 0.00 | 0.00 | 0.00 | 59 | 1019.7 |
| 20260831150105 | 85 | 140 | 3.0 | 7.0 | 0.00 | 0.00 | 0.00 | 61 | 1019.7 |
| 20260831145543 | 85 | 221 | 2.0 | 7.0 | 0.00 | 0.00 | 0.00 | 61 | 1019.6 |
| 20260831145043 | 84 | 203 | 3.0 | 7.0 | 0.00 | 0.00 | 0.00 | 61 | 1019.5 |
| 20260831144602 | 84 | 172 | 2.0 | 6.0 | 0.00 | 0.00 | 0.00 | 62 | 1019.5 |
| 20260831144043 | 83 | 198 | 1.0 | 6.0 | 0.00 | 0.00 | 0.00 | 63 | 1019.4 |
| 20260831143543 | 83 | 196 | 2.0 | 8.0 | 0.00 | 0.00 | 0.00 | 63 | 1019.4 |
| 20260831143107 | 83 | 185 | 2.0 | 8.0 | 0.00 | 0.00 | 0.00 | 63 | 1019.4 |
| 20260831142543 | 83 | 208 | 2.0 | 8.0 | 0.00 | 0.00 | 0.00 | 63 | 1019.4 |
| 20260831142045 | 82 | 206 | 1.0 | 7.0 | 0.00 | 0.00 | 0.00 | 65 | 1019.5 |
| 20260831141606 | 81 | 242 | 1.0 | 7.0 | 0.00 | 0.00 | 0.00 | 65 | 1019.5 |
| 20260831141043 | 81 | 215 | 1.0 | 6.0 | 0.00 | 0.00 | 0.00 | 65 | 1019.5 |
| 20260831140543 | 80 | 222 | 1.0 | 6.0 | 0.00 | 0.00 | 0.00 | 66 | 1019.6 |
| 20260831140106 | 80 | 155 | 2.0 | 6.0 | 0.00 | 0.00 | 0.00 | 67 | 1019.4 |
| 20260831135543 | 80 | 157 | 2.0 | 6.0 | 0.00 | 0.00 | 0.00 | 66 | 1019.6 |
| 20260831135044 | 79 | 161 | 1.0 | 6.0 | 0.00 | 0.00 | 0.00 | 68 | 1019.5 |
| 20260831134608 | 78 | 202 | 0.0 | 6.0 | 0.00 | 0.00 | 0.00 | 68 | 1019.3 |
| 20260831134044 | 78 | 178 | 1.0 | 4.0 | 0.00 | 0.00 | 0.00 | 69 | 1019.3 |
| 20260831133543 | 77 | 129 | 1.0 | 4.0 | 0.00 | 0.00 | 0.00 | 70 | 1019.2 |
| 20260831133106 | 76 | 213 | 1.0 | 4.0 | 0.00 | 0.00 | 0.00 | 71 | 1019.3 |
| 20260831132543 | 75 | 161 | 0.0 | 3.0 | 0.00 | 0.00 | 0.00 | 72 | 1019.2 |
| 20260831132043 | 75 | 153 | 0.0 | 3.0 | 0.00 | 0.00 | 0.00 | 72 | 1019.2 |
| 20260831131604 | 74 | 142 | 0.0 | 1.0 | 0.00 | 0.00 | 0.00 | 73 | 1019.3 |
| 20260831131043 | 74 | 136 | 0.0 | 2.0 | 0.00 | 0.00 | 0.00 | 73 | 1019.3 |
| 20260831130544 | 74 | 0 | 0.0 | 2.0 | 0.00 | 0.00 | 0.00 | 73 | 1019.2 |
| 20260831130110 | 73 | 141 | 0.0 | 2.0 | 0.00 | 0.00 | 0.00 | 73 | 1018.9 |
| 20260831125543 | 73 | 0 | 0.0 | 2.0 | 0.00 | 0.00 | 0.00 | 73 | 1018.9 |
| 20260831125044 | 73 | 150 | 1.0 | 2.0 | 0.00 | 0.00 | 0.00 | 73 | 1018.7 |
| 20260831124612 | 72 | 0 | 0.0 | 3.0 | 0.00 | 0.00 | 0.00 | 74 | 1018.7 |
| 20260831124043 | 72 | 171 | 0.0 | 3.0 | 0.00 | 0.00 | 0.00 | 74 | 1018.7 |
| 20260831123543 | 72 | 131 | 0.0 | 2.0 | 0.00 | 0.00 | 0.00 | 74 | 1018.7 |
| 20260831123100 | 72 | 0 | 0.0 | 2.0 | 0.00 | 0.00 | 0.00 | 74 | 1018.7 |
| 20260831122543 | 71 | 0 | 0.0 | 2.0 | 0.00 | 0.00 | 0.00 | 74 | 1018.7 |
| 20260831122043 | 71 | 0 | 0.0 | 2.0 | 0.00 | 0.00 | 0.00 | 74 | 1018.5 |
| 20260831121601 | 72 | 0 | 0.0 | 4.0 | 0.00 | 0.00 | 0.00 | 73 | 1018.4 |
| 20260831121043 | 72 | 119 | 0.0 | 4.0 | 0.00 | 0.00 | 0.00 | 73 | 1018.4 |
| 20260831120544 | 71 | 137 | 0.0 | 3.0 | 0.00 | 0.00 | 0.00 | 73 | 1018.2 |
| 20260831120107 | 71 | 134 | 0.0 | 2.0 | 0.00 | 0.00 | 0.00 | 73 | 1018.2 |
| 20260831115544 | 71 | 132 | 0.0 | 2.0 | 0.00 | 0.00 | 0.00 | 74 | 1018.1 |
| 20260831115044 | 71 | 161 | 0.0 | 2.0 | 0.00 | 0.00 | 0.00 | 74 | 1018.1 |
| 20260831114609 | 71 | 119 | 0.0 | 2.0 | 0.00 | 0.00 | 0.00 | 74 | 1018.0 |
| 20260831114043 | 71 | 129 | 0.0 | 1.0 | 0.00 | 0.00 | 0.00 | 74 | 1017.9 |
| 20260831113545 | 71 | 131 | 0.0 | 1.0 | 0.00 | 0.00 | 0.00 | 74 | 1017.8 |
| 20260831113107 | 71 | 0 | 0.0 | 1.0 | 0.00 | 0.00 | 0.00 | 74 | 1017.8 |
| 20260831112544 | 71 | 140 | 0.0 | 1.0 | 0.00 | 0.00 | 0.00 | 73 | 1017.7 |
| 20260831112044 | 71 | 0 | 0.0 | 1.0 | 0.00 | 0.00 | 0.00 | 73 | 1017.8 |
| 20260831111606 | 71 | 126 | 0.0 | 3.0 | 0.00 | 0.00 | 0.00 | 73 | 1017.7 |
| 20260831111045 | 71 | 202 | 0.0 | 3.0 | 0.00 | 0.00 | 0.00 | 73 | 1017.7 |
| 20260831110547 | 71 | 146 | 0.0 | 3.0 | 0.00 | 0.00 | 0.00 | 73 | 1017.6 |
| 20260831110107 | 72 | 0 | 0.0 | 3.0 | 0.00 | 0.00 | 0.00 | 72 | 1017.6 |
| 20260831105543 | 72 | 0 | 0.0 | 3.0 | 0.00 | 0.00 | 0.00 | 72 | 1017.6 |
| 20260831105044 | 72 | 0 | 1.0 | 4.0 | 0.00 | 0.00 | 0.00 | 72 | 1017.5 |
| 20260831104600 | 72 | 146 | 0.0 | 4.0 | 0.00 | 0.00 | 0.00 | 71 | 1017.5 |
| 20260831104043 | 72 | 201 | 1.0 | 3.0 | 0.00 | 0.00 | 0.00 | 71 | 1017.5 |
| 20260831103544 | 72 | 146 | 0.0 | 3.0 | 0.00 | 0.00 | 0.00 | 71 | 1017.5 |
| 20260831103108 | 72 | 171 | 0.0 | 4.0 | 0.00 | 0.00 | 0.00 | 71 | 1017.5 |
| 20260831102543 | 72 | 130 | 1.0 | 4.0 | 0.00 | 0.00 | 0.00 | 71 | 1017.5 |
| 20260831102043 | 72 | 133 | 1.0 | 3.0 | 0.00 | 0.00 | 0.00 | 71 | 1017.4 |
| 20260831101605 | 72 | 154 | 1.0 | 7.0 | 0.00 | 0.00 | 0.00 | 71 | 1017.5 |
| 20260831101043 | 72 | 136 | 2.0 | 7.0 | 0.00 | 0.00 | 0.00 | 71 | 1017.5 |
| 20260831100543 | 72 | 154 | 1.0 | 4.0 | 0.00 | 0.00 | 0.00 | 71 | 1017.5 |
| 20260831100127 | 72 | 152 | 1.0 | 4.0 | 0.00 | 0.00 | 0.00 | 71 | 1017.5 |
| 20260831095545 | 72 | 139 | 0.0 | 2.0 | 0.00 | 0.00 | 0.00 | 71 | 1017.5 |
| 20260831095044 | 72 | 128 | 1.0 | 3.0 | 0.00 | 0.00 | 0.00 | 71 | 1017.5 |
| 20260831094607 | 72 | 118 | 0.0 | 3.0 | 0.00 | 0.00 | 0.00 | 71 | 1017.5 |
| 20260831094043 | 72 | 131 | 0.0 | 3.0 | 0.00 | 0.00 | 0.00 | 71 | 1017.6 |
| 20260831093545 | 72 | 0 | 0.0 | 3.0 | 0.00 | 0.00 | 0.00 | 70 | 1017.6 |
| 20260831093133 | 73 | 143 | 1.0 | 4.0 | 0.00 | 0.00 | 0.00 | 70 | 1017.5 |
| 20260831092543 | 73 | 130 | 2.0 | 4.0 | 0.00 | 0.00 | 0.00 | 70 | 1017.6 |
| 20260831092045 | 73 | 144 | 1.0 | 5.0 | 0.00 | 0.00 | 0.00 | 70 | 1017.6 |
| 20260831091604 | 73 | 148 | 1.0 | 6.0 | 0.00 | 0.00 | 0.00 | 70 | 1017.5 |
| 20260831091043 | 73 | 197 | 1.0 | 6.0 | 0.00 | 0.00 | 0.00 | 70 | 1017.5 |
| 20260831090544 | 73 | 135 | 1.0 | 5.0 | 0.00 | 0.00 | 0.00 | 70 | 1017.5 |
| 20260831090134 | 73 | 159 | 2.0 | 5.0 | 0.00 | 0.00 | 0.00 | 70 | 1017.5 |
| 20260831085547 | 73 | 229 | 1.0 | 6.0 | 0.00 | 0.00 | 0.00 | 70 | 1017.5 |
| 20260831085046 | 73 | 130 | 1.0 | 6.0 | 0.00 | 0.00 | 0.00 | 70 | 1017.5 |
| 20260831084600 | 73 | 132 | 1.0 | 8.0 | 0.00 | 0.00 | 0.00 | 70 | 1017.5 |
| 20260831084047 | 73 | 134 | 2.0 | 8.0 | 0.00 | 0.00 | 0.00 | 70 | 1017.5 |
| 20260831083543 | 73 | 169 | 1.0 | 5.0 | 0.00 | 0.00 | 0.00 | 69 | 1017.4 |
| 20260831083111 | 73 | 144 | 2.0 | 7.0 | 0.00 | 0.00 | 0.00 | 69 | 1017.4 |
| 20260831082543 | 73 | 157 | 1.0 | 7.0 | 0.00 | 0.00 | 0.00 | 70 | 1017.3 |
| 20260831082043 | 73 | 146 | 2.0 | 5.0 | 0.00 | 0.00 | 0.00 | 70 | 1017.3 |
| 20260831081606 | 73 | 136 | 2.0 | 5.0 | 0.00 | 0.00 | 0.00 | 70 | 1017.2 |
| 20260831081044 | 73 | 164 | 0.0 | 3.0 | 0.00 | 0.00 | 0.00 | 69 | 1017.2 |
| 20260831080543 | 73 | 155 | 1.0 | 7.0 | 0.00 | 0.00 | 0.00 | 69 | 1017.3 |
| 20260831080129 | 73 | 139 | 1.0 | 7.0 | 0.00 | 0.00 | 0.00 | 69 | 1017.1 |
| 20260831075543 | 74 | 147 | 1.0 | 8.0 | 0.00 | 0.00 | 0.00 | 69 | 1017.1 |
| 20260831075043 | 74 | 134 | 1.0 | 8.0 | 0.00 | 0.00 | 0.00 | 68 | 1017.1 |
| 20260831074608 | 74 | 143 | 2.0 | 8.0 | 0.00 | 0.00 | 0.00 | 68 | 1017.1 |
| 20260831074044 | 74 | 188 | 1.0 | 5.0 | 0.00 | 0.00 | 0.00 | 68 | 1017.1 |
| 20260831073546 | 74 | 139 | 1.0 | 5.0 | 0.00 | 0.00 | 0.00 | 68 | 1017.2 |
| 20260831073102 | 74 | 145 | 1.0 | 6.0 | 0.00 | 0.00 | 0.00 | 68 | 1017.1 |
| 20260831072542 | 74 | 145 | 2.0 | 6.0 | 0.00 | 0.00 | 0.00 | 67 | 1017.2 |
| 20260831072043 | 74 | 157 | 1.0 | 7.0 | 0.00 | 0.00 | 0.00 | 67 | 1017.2 |
| 20260831071558 | 75 | 143 | 3.0 | 12.0 | 0.00 | 0.00 | 0.00 | 67 | 1017.2 |
| 20260831071043 | 75 | 139 | 2.0 | 12.0 | 0.00 | 0.00 | 0.00 | 67 | 1017.2 |
| 20260831070545 | 75 | 133 | 2.0 | 6.0 | 0.00 | 0.00 | 0.00 | 67 | 1017.2 |
| 20260831070104 | 75 | 153 | 2.0 | 6.0 | 0.00 | 0.00 | 0.00 | 67 | 1017.3 |
| 20260831065543 | 75 | 153 | 2.0 | 7.0 | 0.00 | 0.00 | 0.00 | 67 | 1017.4 |
| 20260831065042 | 75 | 130 | 2.0 | 7.0 | 0.00 | 0.00 | 0.00 | 67 | 1017.3 |
| 20260831064609 | 75 | 165 | 2.0 | 7.0 | 0.00 | 0.00 | 0.00 | 67 | 1017.4 |
| 20260831064042 | 75 | 147 | 2.0 | 5.0 | 0.00 | 0.00 | 0.00 | 68 | 1017.4 |
| 20260831063543 | 75 | 149 | 2.0 | 6.0 | 0.00 | 0.00 | 0.00 | 68 | 1017.4 |
| 20260831063112 | 75 | 158 | 2.0 | 7.0 | 0.00 | 0.00 | 0.00 | 68 | 1017.5 |
| 20260831062544 | 75 | 132 | 2.0 | 7.0 | 0.00 | 0.00 | 0.00 | 68 | 1017.5 |
| 20260831062044 | 75 | 173 | 2.0 | 6.0 | 0.00 | 0.00 | 0.00 | 68 | 1017.4 |
| 20260831061601 | 75 | 142 | 2.0 | 5.0 | 0.00 | 0.00 | 0.00 | 68 | 1017.5 |
| 20260831061045 | 75 | 136 | 2.0 | 6.0 | 0.00 | 0.00 | 0.00 | 68 | 1017.5 |
| 20260831060543 | 76 | 148 | 2.0 | 6.0 | 0.00 | 0.00 | 0.00 | 67 | 1017.5 |
| 20260831060111 | 76 | 134 | 2.0 | 6.0 | 0.00 | 0.00 | 0.00 | 67 | 1017.5 |
| 20260831055543 | 76 | 127 | 2.0 | 6.0 | 0.00 | 0.00 | 0.00 | 67 | 1017.5 |
| 20260831055045 | 76 | 134 | 3.0 | 5.0 | 0.00 | 0.00 | 0.00 | 67 | 1017.4 |
| 20260831054612 | 76 | 146 | 2.0 | 5.0 | 0.00 | 0.00 | 0.00 | 67 | 1017.4 |
| 20260831054043 | 76 | 132 | 2.0 | 6.0 | 0.00 | 0.00 | 0.00 | 67 | 1017.4 |
| 20260831053543 | 76 | 140 | 2.0 | 6.0 | 0.00 | 0.00 | 0.00 | 67 | 1017.4 |
| 20260831053132 | 76 | 155 | 3.0 | 7.0 | 0.00 | 0.00 | 0.00 | 67 | 1017.4 |
| 20260831052544 | 76 | 130 | 2.0 | 7.0 | 0.00 | 0.00 | 0.00 | 66 | 1017.4 |
| 20260831052043 | 76 | 137 | 1.0 | 7.0 | 0.00 | 0.00 | 0.00 | 66 | 1017.4 |
| 20260831051607 | 77 | 148 | 2.0 | 7.0 | 0.00 | 0.00 | 0.00 | 66 | 1017.4 |
| 20260831051043 | 77 | 148 | 2.0 | 7.0 | 0.00 | 0.00 | 0.00 | 66 | 1017.3 |
| 20260831050621 | 77 | 163 | 2.0 | 6.0 | 0.00 | 0.00 | 0.00 | 66 | 1017.3 |
| 20260831050543 | 77 | 163 | 2.0 | 6.0 | 0.00 | 0.00 | 0.00 | 66 | 1017.3 |
| 20260831050111 | 77 | 146 | 1.0 | 6.0 | 0.00 | 0.00 | 0.00 | 66 | 1017.2 |
| 20260831045544 | 77 | 144 | 2.0 | 9.0 | 0.00 | 0.00 | 0.00 | 66 | 1017.2 |
| 20260831045043 | 77 | 140 | 2.0 | 9.0 | 0.00 | 0.00 | 0.00 | 66 | 1017.2 |
| 20260831044645 | 77 | 144 | 2.0 | 9.0 | 0.00 | 0.00 | 0.00 | 66 | 1017.1 |
| 20260831044043 | 77 | 143 | 1.0 | 6.0 | 0.00 | 0.00 | 0.00 | 66 | 1016.9 |
| 20260831043543 | 77 | 142 | 2.0 | 8.0 | 0.00 | 0.00 | 0.00 | 65 | 1016.8 |
| 20260831043100 | 77 | 136 | 2.0 | 8.0 | 0.00 | 0.00 | 0.00 | 65 | 1016.7 |
| 20260831042543 | 77 | 144 | 2.0 | 8.0 | 0.00 | 0.00 | 0.00 | 65 | 1016.8 |
| 20260831042043 | 77 | 140 | 2.0 | 6.0 | 0.00 | 0.00 | 0.00 | 65 | 1016.7 |
| 20260831041616 | 77 | 139 | 1.0 | 4.0 | 0.00 | 0.00 | 0.00 | 66 | 1016.7 |
| 20260831041043 | 77 | 171 | 1.0 | 4.0 | 0.00 | 0.00 | 0.00 | 65 | 1016.6 |
| 20260831040545 | 78 | 154 | 1.0 | 4.0 | 0.00 | 0.00 | 0.00 | 65 | 1016.6 |
| 20260831040059 | 78 | 157 | 1.0 | 4.0 | 0.00 | 0.00 | 0.00 | 65 | 1016.6 |
| 20260831035544 | 78 | 148 | 1.0 | 4.0 | 0.00 | 0.00 | 0.00 | 65 | 1016.6 |
| 20260831035044 | 78 | 148 | 1.0 | 4.0 | 0.00 | 0.00 | 0.00 | 64 | 1016.5 |
| 20260831034609 | 78 | 164 | 1.0 | 5.0 | 0.00 | 0.00 | 0.00 | 64 | 1016.5 |
| 20260831034043 | 79 | 153 | 1.0 | 7.0 | 0.00 | 0.00 | 0.00 | 63 | 1016.5 |
| 20260831033544 | 79 | 153 | 2.0 | 7.0 | 0.00 | 0.00 | 0.00 | 62 | 1016.5 |
| 20260831033111 | 79 | 200 | 2.0 | 9.0 | 0.00 | 0.00 | 0.00 | 62 | 1016.6 |
| 20260831032543 | 79 | 140 | 3.0 | 9.0 | 0.00 | 0.00 | 0.00 | 61 | 1016.6 |
| 20260831032042 | 79 | 134 | 3.0 | 9.0 | 0.00 | 0.00 | 0.00 | 61 | 1016.6 |
| 20260831031602 | 79 | 149 | 3.0 | 9.0 | 0.00 | 0.00 | 0.00 | 61 | 1016.7 |
| 20260831031043 | 79 | 138 | 4.0 | 7.0 | 0.00 | 0.00 | 0.00 | 61 | 1016.7 |
| 20260831030546 | 79 | 153 | 2.0 | 9.0 | 0.00 | 0.00 | 0.00 | 60 | 1016.6 |
| 20260831025545 | 79 | 137 | 3.0 | 7.0 | 0.00 | 0.00 | 0.00 | 59 | 1016.7 |
| 20260831025044 | 79 | 144 | 2.0 | 8.0 | 0.00 | 0.00 | 0.00 | 59 | 1016.6 |
| 20260831024558 | 80 | 144 | 2.0 | 8.0 | 0.00 | 0.00 | 0.00 | 58 | 1016.6 |
| 20260831024045 | 80 | 140 | 2.0 | 7.0 | 0.00 | 0.00 | 0.00 | 58 | 1016.6 |
| 20260831023543 | 80 | 137 | 3.0 | 6.0 | 0.00 | 0.00 | 0.00 | 58 | 1016.5 |
| 20260831023107 | 80 | 134 | 2.0 | 6.0 | 0.00 | 0.00 | 0.00 | 57 | 1016.5 |
| 20260831022544 | 80 | 140 | 2.0 | 8.0 | 0.00 | 0.00 | 0.00 | 57 | 1016.5 |
| 20260831022044 | 80 | 124 | 2.0 | 8.0 | 0.00 | 0.00 | 0.00 | 57 | 1016.4 |
| 20260831021601 | 80 | 133 | 2.0 | 6.0 | 0.00 | 0.00 | 0.00 | 57 | 1016.4 |
| 20260831021044 | 80 | 137 | 2.0 | 6.0 | 0.00 | 0.00 | 0.00 | 57 | 1016.4 |
| 20260831020544 | 80 | 143 | 1.0 | 3.0 | 0.00 | 0.00 | 0.00 | 57 | 1016.3 |
| 20260831020104 | 80 | 128 | 1.0 | 3.0 | 0.00 | 0.00 | 0.00 | 57 | 1016.2 |
| 20260831015547 | 81 | 111 | 1.0 | 4.0 | 0.00 | 0.00 | 0.00 | 57 | 1016.2 |
| 20260831015046 | 81 | 148 | 1.0 | 4.0 | 0.00 | 0.00 | 0.00 | 57 | 1016.0 |
| 20260831014600 | 81 | 137 | 1.0 | 4.0 | 0.00 | 0.00 | 0.00 | 57 | 1016.0 |
| 20260831014043 | 81 | 110 | 1.0 | 4.0 | 0.00 | 0.00 | 0.00 | 57 | 1015.9 |
| 20260831013543 | 81 | 132 | 1.0 | 5.0 | 0.00 | 0.00 | 0.00 | 56 | 1015.8 |
| 20260831013105 | 82 | 132 | 1.0 | 5.0 | 0.00 | 0.00 | 0.00 | 56 | 1015.7 |
| 20260831012545 | 82 | 153 | 1.0 | 5.0 | 0.00 | 0.00 | 0.00 | 55 | 1015.7 |
| 20260831012044 | 82 | 130 | 1.0 | 5.0 | 0.00 | 0.00 | 0.00 | 55 | 1015.6 |
| 20260831011604 | 83 | 146 | 1.0 | 5.0 | 0.00 | 0.00 | 0.00 | 54 | 1015.6 |
| 20260831011043 | 83 | 126 | 2.0 | 5.0 | 0.00 | 0.00 | 0.00 | 53 | 1015.5 |
| 20260831010544 | 83 | 138 | 2.0 | 5.0 | 0.00 | 0.00 | 0.00 | 54 | 1015.5 |
| 20260831010119 | 83 | 140 | 1.0 | 5.0 | 0.00 | 0.00 | 0.00 | 54 | 1015.5 |
| 20260831005544 | 83 | 128 | 1.0 | 3.0 | 0.00 | 0.00 | 0.00 | 54 | 1015.4 |
| 20260831005044 | 84 | 132 | 1.0 | 4.0 | 0.00 | 0.00 | 0.00 | 53 | 1015.4 |
| 20260831004619 | 84 | 130 | 1.0 | 4.0 | 0.00 | 0.00 | 0.00 | 53 | 1015.5 |